Location: Unspecified
(0.0000°N, 0.0000°E)
Time: 14:48:44
(UTC+00:00)

BREEZE-M R/B - Pass Details

Date: 01 November 2020
Orbit: 3083 x 63194 km, 23.7° (Epoch: 26 November)

Event Time Altitude Azimuth Distance (km) Brightness Sun altitude
Rises 02:49:01 0° 80° (E) 37,949 ? -41.9°
Reaches altitude 10° 04:06:22 10° 75° (ENE) 46,995 ? -23.5°
Maximum altitude 10:49:39 66° 3° (N) 63,688 ? 70.2°
Drops below altitude 10° 17:48:57 10° 295° (WNW) 47,417 ? -1.3°
Sets 19:26:50 0° 292° (WNW) 35,333 ? -24.9°
